Time,TemperatureF,DewpointF,PressureIn,WindDirection,WindDirectionDegrees,WindSpeedMPH,WindSpeedGustMPH,Humidity,HourlyPrecipIn,Conditions,Clouds,dailyrainin,SoftwareType,DateUTC
2013-02-05 00:01:00,32.1,23.8,29.88,West,274,0.0,0.0,71,0.00,,,0.00,Wunderground v.1.15,2013-02-05 05:01:00,
2013-02-05 00:04:00,32.2,23.8,29.88,West,274,0.0,1.0,71,0.00,,,0.00,Wunderground v.1.15,2013-02-05 05:04:00,
2013-02-05 00:09:00,32.2,23.8,29.88,West,275,0.0,2.0,71,0.00,,,0.00,Wunderground v.1.15,2013-02-05 05:09:00,
2013-02-05 00:10:00,32.2,23.8,29.88,West,275,0.0,1.0,71,0.00,,,0.00,Wunderground v.1.15,2013-02-05 05:10:00,
2013-02-05 00:15:00,32.4,24.0,29.88,West,275,0.0,1.0,71,0.00,,,0.00,Wunderground v.1.15,2013-02-05 05:15:00,
2013-02-05 00:20:00,32.4,24.0,29.88,West,275,0.0,0.0,71,0.00,,,0.00,Wunderground v.1.15,2013-02-05 05:20:00,
2013-02-05 00:25:00,32.5,24.1,29.87,West,275,0.0,0.0,71,0.00,,,0.00,Wunderground v.1.15,2013-02-05 05:25:00,
2013-02-05 00:30:00,32.3,24.3,29.87,West,275,0.0,0.0,72,0.00,,,0.00,Wunderground v.1.15,2013-02-05 05:30:00,
2013-02-05 00:36:00,32.1,24.1,29.88,West,275,0.0,1.0,72,0.00,,,0.00,Wunderground v.1.15,2013-02-05 05:36:00,
2013-02-05 00:41:00,32.1,24.1,29.87,West,275,0.0,1.0,72,0.00,,,0.00,Wunderground v.1.15,2013-02-05 05:41:00,
2013-02-05 00:46:00,32.2,23.8,29.88,WSW,252,0.0,2.0,71,0.00,,,0.00,Wunderground v.1.15,2013-02-05 05:46:00,
2013-02-05 00:51:00,32.3,24.3,29.88,North,5,1.0,1.0,72,0.00,,,0.00,Wunderground v.1.15,2013-02-05 05:51:00,
2013-02-05 00:57:00,32.3,24.6,29.87,North,5,0.0,1.0,73,0.00,,,0.00,Wunderground v.1.15,2013-02-05 05:57:00,
2013-02-05 01:02:00,32.2,24.5,29.87,WSW,252,0.0,0.0,73,0.00,,,0.00,Wunderground v.1.15,2013-02-05 06:02:00,
2013-02-05 01:07:00,32.1,24.1,29.87,West,267,0.0,4.0,72,0.00,,,0.00,Wunderground v.1.15,2013-02-05 06:07:00,
2013-02-05 01:13:00,32.4,24.0,29.86,SE,134,0.0,2.0,71,0.00,,,0.00,Wunderground v.1.15,2013-02-05 06:13:00,
2013-02-05 01:19:00,32.6,24.2,29.86,WSW,245,0.0,2.0,71,0.00,,,0.00,Wunderground v.1.15,2013-02-05 06:19:00,
2013-02-05 01:24:00,32.8,24.8,29.86,WSW,245,0.0,0.0,72,0.00,,,0.00,Wunderground v.1.15,2013-02-05 06:24:00,
2013-02-05 01:29:00,32.9,24.5,29.86,WSW,253,0.0,2.0,71,0.00,,,0.00,Wunderground v.1.15,2013-02-05 06:29:00,
2013-02-05 01:34:00,33.2,25.1,29.86,WSW,255,1.0,2.0,72,0.00,,,0.00,Wunderground v.1.15,2013-02-05 06:34:00,
2013-02-05 01:39:00,33.5,25.1,29.86,West,264,1.0,2.0,71,0.00,,,0.00,Wunderground v.1.15,2013-02-05 06:39:00,
2013-02-05 01:44:00,33.6,25.2,29.86,West,264,1.0,2.0,71,0.00,,,0.00,Wunderground v.1.15,2013-02-05 06:44:00,
2013-02-05 01:49:00,33.7,25.0,29.86,SW,231,2.0,2.0,71,0.00,,,0.00,weatherlink.com 1.10,2013-02-05 06:49:00,
2013-02-05 01:54:00,33.8,25.4,29.86,SW,236,0.0,2.0,71,0.00,,,0.00,Wunderground v.1.15,2013-02-05 06:54:00,
2013-02-05 01:59:00,33.9,25.8,29.86,SW,236,0.0,2.0,72,0.00,,,0.00,Wunderground v.1.15,2013-02-05 06:59:00,
2013-02-05 02:04:00,33.9,25.8,29.86,SW,236,0.0,1.0,72,0.00,,,0.00,Wunderground v.1.15,2013-02-05 07:04:00,
2013-02-05 02:10:00,33.9,26.2,29.86,SW,236,0.0,0.0,73,0.00,,,0.00,Wunderground v.1.15,2013-02-05 07:10:00,
2013-02-05 02:15:00,33.9,26.0,29.86,SW,236,0.0,2.0,72,0.00,,,0.00,weatherlink.com 1.10,2013-02-05 07:15:00,
2013-02-05 02:21:00,33.7,26.3,29.85,SW,236,0.0,0.0,74,0.00,,,0.00,Wunderground v.1.15,2013-02-05 07:21:00,
2013-02-05 02:26:00,33.7,26.0,29.85,SW,236,0.0,0.0,73,0.00,,,0.00,Wunderground v.1.15,2013-02-05 07:26:00,
2013-02-05 02:32:00,33.6,26.2,29.85,SW,236,0.0,0.0,74,0.00,,,0.00,Wunderground v.1.15,2013-02-05 07:32:00,
2013-02-05 02:37:00,33.5,25.8,29.85,SW,236,0.0,0.0,73,0.00,,,0.00,Wunderground v.1.15,2013-02-05 07:37:00,
2013-02-05 02:44:00,33.4,25.7,29.85,SW,236,0.0,0.0,73,0.00,,,0.00,Wunderground v.1.15,2013-02-05 07:44:00,
2013-02-05 02:49:00,33.3,25.6,29.85,SW,236,0.0,4.0,73,0.00,,,0.00,Wunderground v.1.15,2013-02-05 07:49:00,
2013-02-05 02:54:00,33.2,26.1,29.85,SW,236,0.0,4.0,75,0.00,,,0.00,Wunderground v.1.15,2013-02-05 07:54:00,
2013-02-05 02:59:00,33.1,26.0,29.85,SW,236,0.0,4.0,75,0.00,,,0.00,Wunderground v.1.15,2013-02-05 07:59:00,
2013-02-05 03:04:00,33.1,25.4,29.85,SW,236,0.0,0.0,73,0.00,,,0.00,Wunderground v.1.15,2013-02-05 08:04:00,
2013-02-05 03:10:00,33.0,25.9,29.85,SW,236,0.0,0.0,75,0.00,,,0.00,Wunderground v.1.15,2013-02-05 08:10:00,
2013-02-05 03:15:00,33.0,25.9,29.85,SW,236,0.0,0.0,75,0.00,,,0.00,Wunderground v.1.15,2013-02-05 08:15:00,
2013-02-05 03:20:00,32.9,25.8,29.85,SW,236,0.0,0.0,75,0.00,,,0.00,Wunderground v.1.15,2013-02-05 08:20:00,
2013-02-05 03:26:00,32.9,25.5,29.85,SW,236,0.0,0.0,74,0.00,,,0.00,Wunderground v.1.15,2013-02-05 08:26:00,
2013-02-05 03:31:00,32.9,25.5,29.85,SW,236,0.0,0.0,74,0.00,,,0.00,Wunderground v.1.15,2013-02-05 08:31:00,
2013-02-05 03:37:00,33.0,25.9,29.85,SW,236,0.0,0.0,75,0.00,,,0.00,Wunderground v.1.15,2013-02-05 08:37:00,
2013-02-05 03:42:00,33.0,25.9,29.85,SW,236,0.0,0.0,75,0.00,,,0.00,Wunderground v.1.15,2013-02-05 08:42:00,
2013-02-05 03:47:00,32.9,25.8,29.85,SW,236,0.0,0.0,75,0.00,,,0.00,Wunderground v.1.15,2013-02-05 08:47:00,
2013-02-05 03:54:00,32.9,26.5,29.85,SW,236,0.0,0.0,77,0.00,,,0.00,Wunderground v.1.15,2013-02-05 08:54:00,
2013-02-05 03:59:00,32.8,25.7,29.84,SW,236,0.0,0.0,75,0.00,,,0.00,Wunderground v.1.15,2013-02-05 08:59:00,
2013-02-05 04:04:00,32.8,25.7,29.84,SW,236,0.0,0.0,75,0.00,,,0.00,Wunderground v.1.15,2013-02-05 09:04:00,
2013-02-05 04:10:00,32.9,26.2,29.84,SW,236,0.0,0.0,76,0.00,,,0.00,Wunderground v.1.15,2013-02-05 09:10:00,
2013-02-05 04:15:00,32.8,27.0,29.84,SW,236,0.0,0.0,79,0.00,,,0.00,Wunderground v.1.15,2013-02-05 09:15:00,
2013-02-05 04:20:00,32.6,27.1,29.84,SW,236,0.0,0.0,80,0.00,,,0.00,Wunderground v.1.15,2013-02-05 09:20:00,
2013-02-05 04:26:00,32.5,27.0,29.85,SW,236,0.0,0.0,80,0.00,,,0.00,Wunderground v.1.15,2013-02-05 09:26:00,
2013-02-05 04:31:00,32.5,27.0,29.85,SW,236,0.0,0.0,80,0.00,,,0.00,Wunderground v.1.15,2013-02-05 09:31:00,
2013-02-05 04:36:00,32.4,27.2,29.85,SW,236,0.0,0.0,81,0.00,,,0.00,Wunderground v.1.15,2013-02-05 09:36:00,
2013-02-05 04:42:00,32.4,27.2,29.85,SW,236,0.0,0.0,81,0.00,,,0.00,Wunderground v.1.15,2013-02-05 09:42:00,
2013-02-05 04:49:00,32.3,27.4,29.85,SW,236,0.0,1.0,82,0.00,,,0.00,Wunderground v.1.15,2013-02-05 09:49:00,
2013-02-05 04:54:00,32.3,27.7,29.85,WSW,239,0.0,1.0,83,0.00,,,0.00,Wunderground v.1.15,2013-02-05 09:54:00,
2013-02-05 04:59:00,32.2,27.3,29.86,WSW,239,0.0,1.0,82,0.00,,,0.00,Wunderground v.1.15,2013-02-05 09:59:00,
2013-02-05 05:04:00,31.9,27.3,29.86,NNW,335,1.0,1.0,83,0.00,,,0.00,Wunderground v.1.15,2013-02-05 10:04:00,
2013-02-05 05:09:00,31.8,27.5,29.86,NNW,340,1.0,2.0,84,0.00,,,0.00,Wunderground v.1.15,2013-02-05 10:09:00,
2013-02-05 05:14:00,31.6,27.6,29.86,NNW,340,0.0,1.0,85,0.00,,,0.00,Wunderground v.1.15,2013-02-05 10:14:00,
2013-02-05 05:19:00,31.5,27.5,29.86,NNW,340,0.0,2.0,85,0.00,,,0.00,Wunderground v.1.15,2013-02-05 10:19:00,
2013-02-05 05:24:00,31.5,27.8,29.86,NNW,340,0.0,1.0,86,0.00,,,0.00,Wunderground v.1.15,2013-02-05 10:24:00,
2013-02-05 05:29:00,31.5,27.8,29.86,NNW,340,0.0,1.0,86,0.00,,,0.00,Wunderground v.1.15,2013-02-05 10:29:00,
2013-02-05 05:35:00,31.4,28.0,29.85,ENE,70,1.0,2.0,87,0.00,,,0.00,Wunderground v.1.15,2013-02-05 10:35:00,
2013-02-05 05:40:00,31.4,28.0,29.86,ENE,70,1.0,1.0,87,0.00,,,0.00,Wunderground v.1.15,2013-02-05 10:40:00,
2013-02-05 05:46:00,31.4,28.0,29.86,ENE,70,0.0,1.0,87,0.00,,,0.00,Wunderground v.1.15,2013-02-05 10:46:00,
2013-02-05 05:51:00,31.4,28.0,29.86,ENE,70,1.0,1.0,87,0.00,,,0.00,Wunderground v.1.15,2013-02-05 10:51:00,
2013-02-05 05:57:00,31.4,28.0,29.86,ENE,70,1.0,2.0,87,0.00,,,0.00,Wunderground v.1.15,2013-02-05 10:57:00,
2013-02-05 06:02:00,31.4,28.0,29.86,ENE,70,1.0,2.0,87,0.00,,,0.00,Wunderground v.1.15,2013-02-05 11:02:00,
2013-02-05 06:07:00,31.5,27.8,29.87,ENE,70,0.0,2.0,86,0.00,,,0.00,Wunderground v.1.15,2013-02-05 11:07:00,
2013-02-05 06:14:00,31.5,28.1,29.87,ENE,70,1.0,1.0,87,0.00,,,0.00,Wunderground v.1.15,2013-02-05 11:14:00,
2013-02-05 06:19:00,31.5,28.1,29.87,ENE,70,1.0,1.0,87,0.00,,,0.00,Wunderground v.1.15,2013-02-05 11:19:00,
2013-02-05 06:24:00,31.5,28.1,29.87,ENE,70,0.0,2.0,87,0.00,,,0.00,Wunderground v.1.15,2013-02-05 11:24:00,
2013-02-05 06:29:00,31.6,28.2,29.87,ENE,70,1.0,2.0,87,0.00,,,0.00,Wunderground v.1.15,2013-02-05 11:29:00,
2013-02-05 06:34:00,31.6,28.2,29.87,ENE,70,1.0,2.0,87,0.00,,,0.00,Wunderground v.1.15,2013-02-05 11:34:00,
2013-02-05 06:40:00,31.6,28.2,29.87,NE,35,1.0,1.0,87,0.00,,,0.00,Wunderground v.1.15,2013-02-05 11:40:00,
2013-02-05 06:45:00,31.6,28.2,29.88,NNE,21,1.0,2.0,87,0.00,,,0.00,Wunderground v.1.15,2013-02-05 11:45:00,
2013-02-05 06:51:00,31.6,28.5,29.88,NNE,21,1.0,2.0,88,0.00,,,0.00,Wunderground v.1.15,2013-02-05 11:51:00,
2013-02-05 06:56:00,31.6,28.5,29.89,NNE,21,1.0,2.0,88,0.00,,,0.00,Wunderground v.1.15,2013-02-05 11:56:00,
2013-02-05 07:03:00,31.5,28.0,29.88,NNE,21,1.0,3.0,88,0.00,,,0.00,weatherlink.com 1.10,2013-02-05 12:03:00,
2013-02-05 07:09:00,31.5,28.6,29.88,NNE,21,1.0,2.0,89,0.00,,,0.00,Wunderground v.1.15,2013-02-05 12:09:00,
2013-02-05 07:14:00,31.5,28.6,29.89,NE,46,1.0,3.0,89,0.00,,,0.00,Wunderground v.1.15,2013-02-05 12:14:00,
2013-02-05 07:19:00,31.4,28.5,29.89,NE,46,2.0,3.0,89,0.00,,,0.00,Wunderground v.1.15,2013-02-05 12:19:00,
2013-02-05 07:24:00,31.3,28.7,29.89,NE,46,2.0,2.0,90,0.00,,,0.00,Wunderground v.1.15,2013-02-05 12:24:00,
2013-02-05 07:30:00,31.2,28.3,29.89,NE,46,1.0,1.0,89,0.00,,,0.00,Wunderground v.1.15,2013-02-05 12:30:00,
2013-02-05 07:35:00,31.2,28.3,29.89,NE,46,1.0,2.0,89,0.00,,,0.00,Wunderground v.1.15,2013-02-05 12:35:00,
2013-02-05 07:40:00,31.2,28.3,29.89,NE,46,1.0,1.0,89,0.00,,,0.00,Wunderground v.1.15,2013-02-05 12:40:00,
2013-02-05 07:46:00,31.2,28.3,29.89,NE,46,1.0,2.0,89,0.00,,,0.00,Wunderground v.1.15,2013-02-05 12:46:00,
2013-02-05 07:51:00,31.2,28.3,29.90,NE,46,1.0,1.0,89,0.00,,,0.00,Wunderground v.1.15,2013-02-05 12:51:00,
2013-02-05 07:56:00,31.2,28.3,29.90,NE,46,1.0,2.0,89,0.00,,,0.00,Wunderground v.1.15,2013-02-05 12:56:00,
2013-02-05 08:01:00,31.2,28.6,29.90,NE,46,0.0,1.0,90,0.00,,,0.00,Wunderground v.1.15,2013-02-05 13:01:00,
2013-02-05 08:07:00,31.2,28.6,29.90,NE,46,1.0,1.0,90,0.00,,,0.00,Wunderground v.1.15,2013-02-05 13:07:00,
2013-02-05 08:13:00,31.2,28.6,29.91,NE,42,1.0,1.0,90,0.00,,,0.00,Wunderground v.1.15,2013-02-05 13:13:00,
2013-02-05 08:18:00,31.2,28.6,29.92,NE,42,1.0,2.0,90,0.00,,,0.00,Wunderground v.1.15,2013-02-05 13:18:00,
2013-02-05 08:24:00,31.2,28.9,29.91,NE,42,1.0,1.0,91,0.00,,,0.00,Wunderground v.1.15,2013-02-05 13:24:00,
2013-02-05 08:29:00,31.2,28.9,29.91,NE,42,1.0,1.0,91,0.00,,,0.00,Wunderground v.1.15,2013-02-05 13:29:00,
2013-02-05 08:34:00,31.2,28.9,29.92,ENE,67,1.0,2.0,91,0.00,,,0.00,Wunderground v.1.15,2013-02-05 13:34:00,
2013-02-05 08:39:00,31.2,28.9,29.92,ENE,67,1.0,2.0,91,0.00,,,0.00,Wunderground v.1.15,2013-02-05 13:39:00,
2013-02-05 08:44:00,31.3,29.0,29.92,ENE,67,1.0,1.0,91,0.00,,,0.00,Wunderground v.1.15,2013-02-05 13:44:00,
2013-02-05 08:50:00,31.3,29.0,29.92,ENE,67,1.0,2.0,91,0.00,,,0.00,Wunderground v.1.15,2013-02-05 13:50:00,
2013-02-05 08:55:00,31.2,29.1,29.91,ENE,67,2.0,3.0,92,0.00,,,0.00,Wunderground v.1.15,2013-02-05 13:55:00,
2013-02-05 09:01:00,31.2,29.1,29.92,ENE,67,2.0,2.0,92,0.00,,,0.00,Wunderground v.1.15,2013-02-05 14:01:00,
2013-02-05 09:06:00,31.2,28.9,29.92,ENE,68,1.0,2.0,91,0.00,,,0.00,Wunderground v.1.15,2013-02-05 14:06:00,
2013-02-05 09:12:00,31.2,28.6,29.92,ENE,68,1.0,1.0,90,0.00,,,0.00,Wunderground v.1.15,2013-02-05 14:12:00,
2013-02-05 09:17:00,31.5,29.2,29.92,ENE,68,1.0,1.0,91,0.00,,,0.00,Wunderground v.1.15,2013-02-05 14:17:00,
2013-02-05 09:22:00,31.6,29.0,29.92,ENE,68,0.0,1.0,90,0.00,,,0.00,Wunderground v.1.15,2013-02-05 14:22:00,
2013-02-05 09:29:00,31.7,28.8,29.92,ENE,68,0.0,1.0,89,0.00,,,0.00,Wunderground v.1.15,2013-02-05 14:29:00,
2013-02-05 09:34:00,31.7,28.8,29.93,North,5,0.0,3.0,89,0.00,,,0.00,Wunderground v.1.15,2013-02-05 14:34:00,
2013-02-05 09:39:00,31.7,28.8,29.92,North,5,1.0,3.0,89,0.00,,,0.00,Wunderground v.1.15,2013-02-05 14:39:00,
2013-02-05 09:44:00,31.7,28.8,29.93,North,5,1.0,2.0,89,0.00,,,0.00,Wunderground v.1.15,2013-02-05 14:44:00,
2013-02-05 09:49:00,31.7,29.1,29.91,NNE,15,1.0,2.0,90,0.00,,,0.00,Wunderground v.1.15,2013-02-05 14:49:00,
2013-02-05 09:54:00,31.8,29.2,29.91,NNE,15,1.0,1.0,90,0.00,,,0.00,Wunderground v.1.15,2013-02-05 14:54:00,
2013-02-05 10:01:00,32.1,29.5,29.92,NNE,15,1.0,1.0,90,0.00,,,0.00,Wunderground v.1.15,2013-02-05 15:01:00,
2013-02-05 10:06:00,32.4,29.0,29.92,ENE,66,1.0,3.0,88,0.00,,,0.00,weatherlink.com 1.10,2013-02-05 15:06:00,
2013-02-05 10:11:00,32.5,29.6,29.92,ENE,66,1.0,1.0,89,0.00,,,0.00,Wunderground v.1.15,2013-02-05 15:11:00,
2013-02-05 10:17:00,32.8,29.6,29.93,ENE,66,1.0,1.0,88,0.00,,,0.00,Wunderground v.1.15,2013-02-05 15:17:00,
2013-02-05 10:23:00,32.9,29.5,29.92,NE,46,1.0,1.0,87,0.00,,,0.00,Wunderground v.1.15,2013-02-05 15:23:00,
2013-02-05 10:29:00,33.1,29.7,29.92,North,5,1.0,2.0,87,0.00,,,0.00,Wunderground v.1.15,2013-02-05 15:29:00,
2013-02-05 10:34:00,33.2,29.8,29.92,South,188,0.0,2.0,87,0.00,,,0.00,Wunderground v.1.15,2013-02-05 15:34:00,
2013-02-05 10:39:00,33.4,29.9,29.92,South,188,0.0,2.0,87,0.00,,,0.00,Wunderground v.1.15,2013-02-05 15:39:00,
2013-02-05 10:44:00,33.5,29.8,29.92,SSE,157,1.0,1.0,86,0.00,,,0.00,Wunderground v.1.15,2013-02-05 15:44:00,
2013-02-05 10:49:00,33.7,30.0,29.92,SSE,157,1.0,1.0,86,0.00,,,0.00,Wunderground v.1.15,2013-02-05 15:49:00,
2013-02-05 10:54:00,33.9,30.2,29.92,SSE,157,0.0,2.0,86,0.00,,,0.00,Wunderground v.1.15,2013-02-05 15:54:00,
2013-02-05 10:59:00,34.1,29.8,29.92,SSE,157,1.0,2.0,84,0.00,,,0.00,Wunderground v.1.15,2013-02-05 15:59:00,
2013-02-05 11:04:00,34.2,30.2,29.92,ESE,107,1.0,2.0,85,0.00,,,0.00,Wunderground v.1.15,2013-02-05 16:04:00,
2013-02-05 11:09:00,34.4,30.1,29.91,South,173,1.0,2.0,84,0.00,,,0.00,Wunderground v.1.15,2013-02-05 16:09:00,
2013-02-05 11:14:00,34.7,30.1,29.92,SE,142,1.0,3.0,83,0.00,,,0.00,Wunderground v.1.15,2013-02-05 16:14:00,
2013-02-05 11:19:00,34.9,30.3,29.92,SSE,153,1.0,3.0,83,0.00,,,0.00,Wunderground v.1.15,2013-02-05 16:19:00,
2013-02-05 11:25:00,35.3,30.7,29.91,ESE,107,1.0,2.0,83,0.00,,,0.00,Wunderground v.1.15,2013-02-05 16:25:00,
2013-02-05 11:30:00,35.8,30.8,29.91,ESE,107,1.0,1.0,82,0.00,,,0.00,Wunderground v.1.15,2013-02-05 16:30:00,
2013-02-05 11:35:00,36.0,30.7,29.91,ESE,107,0.0,1.0,81,0.00,,,0.00,Wunderground v.1.15,2013-02-05 16:35:00,
2013-02-05 11:40:00,36.2,31.2,29.91,ESE,107,0.0,1.0,82,0.00,,,0.00,Wunderground v.1.15,2013-02-05 16:40:00,
2013-02-05 11:46:00,36.4,31.1,29.91,ENE,65,1.0,3.0,81,0.00,,,0.00,Wunderground v.1.15,2013-02-05 16:46:00,
2013-02-05 11:51:00,36.4,30.8,29.91,ENE,65,1.0,1.0,80,0.00,,,0.00,Wunderground v.1.15,2013-02-05 16:51:00,
2013-02-05 11:57:00,36.4,30.8,29.90,ENE,65,1.0,2.0,80,0.00,,,0.00,Wunderground v.1.15,2013-02-05 16:57:00,
2013-02-05 12:04:00,36.3,30.7,29.89,ENE,65,1.0,1.0,80,0.00,,,0.00,Wunderground v.1.15,2013-02-05 17:04:00,
2013-02-05 12:10:00,36.3,31.0,29.89,ENE,65,1.0,1.0,81,0.00,,,0.00,Wunderground v.1.15,2013-02-05 17:10:00,
2013-02-05 12:15:00,36.2,30.9,29.88,ENE,65,1.0,1.0,81,0.00,,,0.00,Wunderground v.1.15,2013-02-05 17:15:00,
2013-02-05 12:21:00,36.1,30.8,29.88,ENE,65,1.0,1.0,81,0.00,,,0.00,Wunderground v.1.15,2013-02-05 17:21:00,
2013-02-05 12:27:00,36.1,30.8,29.88,ENE,65,0.0,2.0,81,0.00,,,0.00,Wunderground v.1.15,2013-02-05 17:27:00,
2013-02-05 12:32:00,36.2,30.9,29.87,ENE,65,0.0,0.0,81,0.00,,,0.00,Wunderground v.1.15,2013-02-05 17:32:00,
2013-02-05 12:37:00,36.3,31.0,29.87,ENE,65,0.0,1.0,81,0.00,,,0.00,Wunderground v.1.15,2013-02-05 17:37:00,
2013-02-05 12:42:00,36.3,30.7,29.87,ENE,65,0.0,1.0,80,0.00,,,0.00,Wunderground v.1.15,2013-02-05 17:42:00,
2013-02-05 12:48:00,36.4,31.1,29.87,ENE,65,0.0,2.0,81,0.00,,,0.00,Wunderground v.1.15,2013-02-05 17:48:00,
2013-02-05 12:54:00,36.4,31.1,29.87,ENE,65,0.0,1.0,81,0.00,,,0.00,Wunderground v.1.15,2013-02-05 17:54:00,
2013-02-05 12:59:00,36.4,31.1,29.86,ENE,65,1.0,2.0,81,0.00,,,0.00,Wunderground v.1.15,2013-02-05 17:59:00,
2013-02-05 13:05:00,36.3,31.0,29.86,ENE,65,0.0,1.0,81,0.00,,,0.00,Wunderground v.1.15,2013-02-05 18:05:00,
2013-02-05 13:10:00,36.4,31.1,29.86,ENE,65,0.0,0.0,81,0.00,,,0.00,Wunderground v.1.15,2013-02-05 18:10:00,
2013-02-05 13:16:00,36.5,31.2,29.86,ENE,65,0.0,1.0,81,0.00,,,0.00,Wunderground v.1.15,2013-02-05 18:16:00,
2013-02-05 13:21:00,36.4,31.1,29.86,ENE,65,0.0,1.0,81,0.00,,,0.00,Wunderground v.1.15,2013-02-05 18:21:00,
2013-02-05 13:26:00,36.4,31.1,29.86,ENE,65,0.0,1.0,81,0.00,,,0.00,Wunderground v.1.15,2013-02-05 18:26:00,
2013-02-05 13:31:00,36.5,31.2,29.85,ENE,65,0.0,0.0,81,0.00,,,0.00,Wunderground v.1.15,2013-02-05 18:31:00,
2013-02-05 13:36:00,36.4,31.4,29.84,ENE,65,0.0,1.0,82,0.00,,,0.00,Wunderground v.1.15,2013-02-05 18:36:00,
2013-02-05 13:42:00,36.4,31.7,29.84,ENE,65,1.0,1.0,83,0.00,,,0.00,Wunderground v.1.15,2013-02-05 18:42:00,
2013-02-05 13:47:00,36.4,32.0,29.85,ENE,65,1.0,1.0,84,0.00,,,0.00,Wunderground v.1.15,2013-02-05 18:47:00,
2013-02-05 13:53:00,36.3,31.9,29.85,ENE,65,1.0,2.0,84,0.00,,,0.00,Wunderground v.1.15,2013-02-05 18:53:00,
2013-02-05 13:58:00,36.2,31.5,29.85,ENE,65,1.0,2.0,83,0.00,,,0.00,Wunderground v.1.15,2013-02-05 18:58:00,
2013-02-05 14:04:00,36.2,31.8,29.85,ENE,65,0.0,0.0,84,0.00,,,0.00,Wunderground v.1.15,2013-02-05 19:04:00,
2013-02-05 14:09:00,36.3,31.9,29.85,ENE,65,0.0,2.0,84,0.00,,,0.00,Wunderground v.1.15,2013-02-05 19:09:00,
2013-02-05 14:15:00,36.4,32.3,29.85,ENE,65,1.0,1.0,85,0.00,,,0.00,Wunderground v.1.15,2013-02-05 19:15:00,
2013-02-05 14:20:00,36.4,32.0,29.84,ENE,65,1.0,1.0,84,0.00,,,0.00,Wunderground v.1.15,2013-02-05 19:20:00,
2013-02-05 14:25:00,36.4,32.3,29.85,ENE,65,0.0,2.0,85,0.00,,,0.00,Wunderground v.1.15,2013-02-05 19:25:00,
2013-02-05 14:30:00,36.3,32.2,29.85,ENE,65,0.0,0.0,85,0.00,,,0.00,Wunderground v.1.15,2013-02-05 19:30:00,
2013-02-05 14:35:00,36.3,32.2,29.85,ENE,65,0.0,1.0,85,0.00,,,0.00,Wunderground v.1.15,2013-02-05 19:35:00,
2013-02-05 14:41:00,36.3,32.5,29.85,ENE,65,0.0,1.0,86,0.00,,,0.00,Wunderground v.1.15,2013-02-05 19:41:00,
2013-02-05 14:46:00,36.4,32.3,29.85,ENE,65,0.0,1.0,85,0.00,,,0.00,Wunderground v.1.15,2013-02-05 19:46:00,
2013-02-05 14:51:00,36.5,32.4,29.85,ENE,65,0.0,0.0,85,0.00,,,0.00,Wunderground v.1.15,2013-02-05 19:51:00,
2013-02-05 14:57:00,36.6,33.0,29.85,ENE,65,1.0,2.0,85,0.00,,,0.00,weatherlink.com 1.10,2013-02-05 19:57:00,
2013-02-05 15:02:00,36.8,32.7,29.85,ENE,65,1.0,1.0,85,0.00,,,0.00,Wunderground v.1.15,2013-02-05 20:02:00,
2013-02-05 15:07:00,36.9,32.8,29.85,ENE,65,1.0,1.0,85,0.00,,,0.00,Wunderground v.1.15,2013-02-05 20:07:00,
2013-02-05 15:12:00,36.9,32.8,29.85,ENE,65,0.0,0.0,85,0.00,,,0.00,Wunderground v.1.15,2013-02-05 20:12:00,
2013-02-05 15:19:00,37.0,32.9,29.85,ENE,65,0.0,0.0,85,0.00,,,0.00,Wunderground v.1.15,2013-02-05 20:19:00,
2013-02-05 15:24:00,37.0,32.6,29.85,ENE,65,1.0,2.0,84,0.00,,,0.00,Wunderground v.1.15,2013-02-05 20:24:00,
2013-02-05 15:29:00,37.0,32.6,29.85,ENE,65,1.0,2.0,84,0.00,,,0.00,Wunderground v.1.15,2013-02-05 20:29:00,
2013-02-05 15:34:00,36.9,32.5,29.85,ENE,65,0.0,2.0,84,0.00,,,0.00,Wunderground v.1.15,2013-02-05 20:34:00,
2013-02-05 15:40:00,36.8,33.0,29.85,ENE,65,0.0,2.0,85,0.00,,,0.00,weatherlink.com 1.10,2013-02-05 20:40:00,
2013-02-05 15:45:00,36.8,32.7,29.85,ENE,65,0.0,0.0,85,0.00,,,0.00,Wunderground v.1.15,2013-02-05 20:45:00,
2013-02-05 15:51:00,36.9,33.1,29.86,ENE,65,0.0,0.0,86,0.00,,,0.00,Wunderground v.1.15,2013-02-05 20:51:00,
2013-02-05 15:56:00,36.9,33.1,29.85,ENE,65,0.0,1.0,86,0.00,,,0.00,Wunderground v.1.15,2013-02-05 20:56:00,
2013-02-05 16:01:00,36.9,33.4,29.85,ENE,65,0.0,0.0,87,0.00,,,0.00,Wunderground v.1.15,2013-02-05 21:01:00,
2013-02-05 16:06:00,37.0,33.2,29.85,ENE,65,0.0,0.0,86,0.00,,,0.00,Wunderground v.1.15,2013-02-05 21:06:00,
2013-02-05 16:11:00,37.0,33.2,29.86,ENE,65,0.0,1.0,86,0.00,,,0.00,Wunderground v.1.15,2013-02-05 21:11:00,
2013-02-05 16:17:00,37.0,33.2,29.86,ENE,65,0.0,1.0,86,0.00,,,0.00,Wunderground v.1.15,2013-02-05 21:17:00,
2013-02-05 16:22:00,37.0,33.2,29.86,ENE,65,0.0,0.0,86,0.00,,,0.00,Wunderground v.1.15,2013-02-05 21:22:00,
2013-02-05 16:29:00,37.0,33.5,29.86,ENE,65,0.0,0.0,87,0.00,,,0.00,Wunderground v.1.15,2013-02-05 21:29:00,
2013-02-05 16:34:00,36.9,33.1,29.86,ENE,65,0.0,1.0,86,0.00,,,0.00,Wunderground v.1.15,2013-02-05 21:34:00,
2013-02-05 16:39:00,36.9,33.1,29.86,ENE,65,0.0,1.0,86,0.00,,,0.00,Wunderground v.1.15,2013-02-05 21:39:00,
2013-02-05 16:44:00,37.0,33.2,29.86,ENE,65,0.0,0.0,86,0.00,,,0.00,Wunderground v.1.15,2013-02-05 21:44:00,
2013-02-05 16:49:00,37.0,33.2,29.86,ENE,65,0.0,0.0,86,0.00,,,0.00,Wunderground v.1.15,2013-02-05 21:49:00,
2013-02-05 16:54:00,37.0,33.2,29.86,ENE,65,0.0,0.0,86,0.00,,,0.00,Wunderground v.1.15,2013-02-05 21:54:00,
2013-02-05 16:59:00,37.0,33.2,29.86,ENE,65,0.0,0.0,86,0.00,,,0.00,Wunderground v.1.15,2013-02-05 21:59:00,
2013-02-05 17:05:00,36.8,33.0,29.86,ENE,65,0.0,1.0,86,0.00,,,0.00,Wunderground v.1.15,2013-02-05 22:05:00,
2013-02-05 17:10:00,36.6,33.0,29.86,ENE,65,0.0,2.0,87,0.00,,,0.00,weatherlink.com 1.10,2013-02-05 22:10:00,
2013-02-05 17:16:00,36.4,32.9,29.86,ENE,65,0.0,0.0,87,0.00,,,0.00,Wunderground v.1.15,2013-02-05 22:16:00,
2013-02-05 17:21:00,36.3,32.8,29.86,ENE,65,0.0,0.0,87,0.00,,,0.00,Wunderground v.1.15,2013-02-05 22:21:00,
2013-02-05 17:29:00,36.1,32.6,29.86,ENE,65,0.0,0.0,87,0.00,,,0.00,Wunderground v.1.15,2013-02-05 22:29:00,
2013-02-05 17:34:00,35.9,32.7,29.86,ENE,65,0.0,0.0,88,0.00,,,0.00,Wunderground v.1.15,2013-02-05 22:34:00,
2013-02-05 17:39:00,35.7,32.2,29.86,ENE,65,0.0,0.0,87,0.00,,,0.00,Wunderground v.1.15,2013-02-05 22:39:00,
2013-02-05 17:44:00,35.5,32.3,29.86,ENE,65,0.0,0.0,88,0.00,,,0.00,Wunderground v.1.15,2013-02-05 22:44:00,
2013-02-05 17:50:00,35.2,32.0,29.86,ENE,65,0.0,0.0,88,0.00,,,0.00,Wunderground v.1.15,2013-02-05 22:50:00,
2013-02-05 17:55:00,35.1,32.2,29.86,ENE,65,0.0,0.0,89,0.00,,,0.00,Wunderground v.1.15,2013-02-05 22:55:00,
2013-02-05 18:01:00,34.8,31.9,29.86,ENE,65,0.0,0.0,89,0.00,,,0.00,Wunderground v.1.15,2013-02-05 23:01:00,
2013-02-05 18:06:00,34.6,31.7,29.86,ENE,65,0.0,0.0,89,0.00,,,0.00,Wunderground v.1.15,2013-02-05 23:06:00,
2013-02-05 18:11:00,34.5,31.9,29.86,ENE,65,0.0,0.0,90,0.00,,,0.00,Wunderground v.1.15,2013-02-05 23:11:00,
2013-02-05 18:16:00,34.4,31.8,29.87,ENE,65,0.0,1.0,90,0.00,,,0.00,Wunderground v.1.15,2013-02-05 23:16:00,
2013-02-05 18:22:00,34.3,31.7,29.87,ENE,65,0.0,0.0,90,0.00,,,0.00,Wunderground v.1.15,2013-02-05 23:22:00,
2013-02-05 18:27:00,34.2,31.8,29.87,ENE,65,0.0,1.0,91,0.00,,,0.00,Wunderground v.1.15,2013-02-05 23:27:00,
2013-02-05 18:32:00,34.1,31.5,29.87,ENE,65,0.0,1.0,90,0.00,,,0.00,Wunderground v.1.15,2013-02-05 23:32:00,
2013-02-05 18:37:00,34.0,31.4,29.87,ENE,65,0.0,1.0,90,0.00,,,0.00,Wunderground v.1.15,2013-02-05 23:37:00,
2013-02-05 18:43:00,33.9,32.0,29.87,ENE,65,0.0,1.0,91,0.00,,,0.00,weatherlink.com 1.10,2013-02-05 23:43:00,
2013-02-05 18:49:00,34.0,31.6,29.87,ENE,65,0.0,1.0,91,0.00,,,0.00,Wunderground v.1.15,2013-02-05 23:49:00,
2013-02-05 18:54:00,34.1,31.7,29.87,ENE,65,0.0,0.0,91,0.00,,,0.00,Wunderground v.1.15,2013-02-05 23:54:00,
2013-02-05 18:59:00,34.1,31.7,29.87,ENE,65,0.0,0.0,91,0.00,,,0.00,Wunderground v.1.15,2013-02-05 23:59:00,
2013-02-05 19:04:00,34.0,31.6,29.88,ENE,65,0.0,0.0,91,0.00,,,0.00,Wunderground v.1.15,2013-02-06 00:04:00,
2013-02-05 19:09:00,33.9,31.6,29.87,ENE,65,0.0,0.0,91,0.00,,,0.00,Wunderground v.1.15,2013-02-06 00:09:00,
2013-02-05 19:15:00,33.8,31.5,29.88,ENE,65,0.0,0.0,91,0.00,,,0.00,Wunderground v.1.15,2013-02-06 00:15:00,
2013-02-05 19:20:00,33.9,31.6,29.88,ENE,65,0.0,0.0,91,0.00,,,0.00,Wunderground v.1.15,2013-02-06 00:20:00,
2013-02-05 19:26:00,33.8,31.5,29.88,ENE,65,0.0,0.0,91,0.00,,,0.00,Wunderground v.1.15,2013-02-06 00:26:00,
2013-02-05 19:31:00,33.7,31.4,29.88,ENE,65,0.0,0.0,91,0.00,,,0.00,Wunderground v.1.15,2013-02-06 00:31:00,
2013-02-05 19:37:00,33.5,31.2,29.88,ENE,65,0.0,1.0,91,0.00,,,0.00,Wunderground v.1.15,2013-02-06 00:37:00,
2013-02-05 19:42:00,33.3,31.0,29.88,ENE,65,0.0,1.0,91,0.00,,,0.00,weatherlink.com 1.10,2013-02-06 00:42:00,
2013-02-05 19:48:00,33.0,30.7,29.88,ENE,65,0.0,2.0,91,0.00,,,0.00,Wunderground v.1.15,2013-02-06 00:48:00,
2013-02-05 19:54:00,32.9,30.8,29.88,ENE,65,0.0,0.0,92,0.00,,,0.00,Wunderground v.1.15,2013-02-06 00:54:00,
2013-02-05 19:59:00,32.9,30.8,29.88,ENE,65,0.0,2.0,92,0.00,,,0.00,Wunderground v.1.15,2013-02-06 00:59:00,
2013-02-05 20:05:00,33.2,31.4,29.89,ENE,65,0.0,1.0,93,0.00,,,0.00,Wunderground v.1.15,2013-02-06 01:05:00,
2013-02-05 20:10:00,33.4,31.3,29.89,ENE,65,0.0,0.0,92,0.00,,,0.00,Wunderground v.1.15,2013-02-06 01:10:00,
2013-02-05 20:15:00,33.5,31.4,29.89,ENE,65,0.0,0.0,92,0.00,,,0.00,Wunderground v.1.15,2013-02-06 01:15:00,
2013-02-05 20:20:00,33.5,31.4,29.89,ENE,65,0.0,0.0,92,0.00,,,0.00,Wunderground v.1.15,2013-02-06 01:20:00,
2013-02-05 20:25:00,33.5,31.4,29.89,ENE,65,0.0,0.0,92,0.00,,,0.00,Wunderground v.1.15,2013-02-06 01:25:00,
2013-02-05 20:31:00,33.4,31.3,29.89,ENE,65,0.0,0.0,92,0.00,,,0.00,Wunderground v.1.15,2013-02-06 01:31:00,
2013-02-05 20:36:00,33.5,31.4,29.89,ENE,65,0.0,1.0,92,0.00,,,0.00,Wunderground v.1.15,2013-02-06 01:36:00,
2013-02-05 20:42:00,33.8,31.7,29.90,ENE,65,0.0,0.0,92,0.00,,,0.00,Wunderground v.1.15,2013-02-06 01:42:00,
2013-02-05 20:47:00,34.2,31.8,29.90,ENE,65,0.0,1.0,91,0.00,,,0.00,Wunderground v.1.15,2013-02-06 01:47:00,
2013-02-05 20:52:00,34.5,32.1,29.90,ENE,65,0.0,0.0,91,0.00,,,0.00,Wunderground v.1.15,2013-02-06 01:52:00,
2013-02-05 20:57:00,34.8,32.2,29.90,ENE,65,0.0,1.0,90,0.00,,,0.00,Wunderground v.1.15,2013-02-06 01:57:00,
2013-02-05 21:05:00,34.8,31.9,29.90,ENE,65,0.0,2.0,89,0.00,,,0.00,Wunderground v.1.15,2013-02-06 02:05:00,
2013-02-05 21:10:00,34.7,31.8,29.91,ENE,65,0.0,0.0,89,0.00,,,0.00,Wunderground v.1.15,2013-02-06 02:10:00,
2013-02-05 21:15:00,34.6,32.0,29.91,ENE,65,0.0,0.0,90,0.00,,,0.00,Wunderground v.1.15,2013-02-06 02:15:00,
2013-02-05 21:21:00,34.5,31.9,29.91,ENE,65,0.0,0.0,90,0.00,,,0.00,Wunderground v.1.15,2013-02-06 02:21:00,
2013-02-05 21:26:00,34.4,31.8,29.91,ENE,65,0.0,0.0,90,0.00,,,0.00,Wunderground v.1.15,2013-02-06 02:26:00,
2013-02-05 21:32:00,34.3,31.7,29.91,ENE,65,0.0,0.0,90,0.00,,,0.00,Wunderground v.1.15,2013-02-06 02:32:00,
2013-02-05 21:37:00,34.0,31.1,29.92,South,171,1.0,4.0,89,0.00,,,0.00,Wunderground v.1.15,2013-02-06 02:37:00,
2013-02-05 21:42:00,33.4,30.8,29.92,South,171,1.0,1.0,90,0.00,,,0.00,Wunderground v.1.15,2013-02-06 02:42:00,
2013-02-05 21:49:00,33.2,30.9,29.92,South,171,1.0,1.0,91,0.00,,,0.00,Wunderground v.1.15,2013-02-06 02:49:00,
2013-02-05 21:54:00,33.2,31.1,29.92,South,171,0.0,0.0,92,0.00,,,0.00,Wunderground v.1.15,2013-02-06 02:54:00,
2013-02-05 21:59:00,33.2,31.1,29.92,South,171,0.0,1.0,92,0.00,,,0.00,Wunderground v.1.15,2013-02-06 02:59:00,
2013-02-05 22:04:00,33.2,31.1,29.92,South,171,0.0,0.0,92,0.00,,,0.00,Wunderground v.1.15,2013-02-06 03:04:00,
2013-02-05 22:10:00,33.3,31.2,29.92,South,171,0.0,0.0,92,0.00,,,0.00,Wunderground v.1.15,2013-02-06 03:10:00,
2013-02-05 22:15:00,33.3,31.2,29.93,South,171,0.0,0.0,92,0.00,,,0.00,Wunderground v.1.15,2013-02-06 03:15:00,
2013-02-05 22:20:00,33.3,31.2,29.93,South,171,0.0,0.0,92,0.00,,,0.00,Wunderground v.1.15,2013-02-06 03:20:00,
2013-02-05 22:25:00,33.4,31.3,29.93,South,171,0.0,0.0,92,0.00,,,0.00,Wunderground v.1.15,2013-02-06 03:25:00,
2013-02-05 22:31:00,33.5,32.0,29.93,South,171,0.0,1.0,92,0.00,,,0.00,weatherlink.com 1.10,2013-02-06 03:31:00,
2013-02-05 22:37:00,33.7,31.6,29.93,South,171,0.0,1.0,92,0.00,,,0.00,Wunderground v.1.15,2013-02-06 03:37:00,
2013-02-05 22:44:00,33.7,31.6,29.93,South,171,0.0,0.0,92,0.00,,,0.00,Wunderground v.1.15,2013-02-06 03:44:00,
2013-02-05 22:49:00,33.8,31.7,29.93,South,171,0.0,0.0,92,0.00,,,0.00,Wunderground v.1.15,2013-02-06 03:49:00,
2013-02-05 22:54:00,34.0,31.9,29.93,South,171,0.0,0.0,92,0.00,,,0.00,Wunderground v.1.15,2013-02-06 03:54:00,
2013-02-05 23:01:00,34.2,32.1,29.93,South,171,0.0,0.0,92,0.00,,,0.00,Wunderground v.1.15,2013-02-06 04:01:00,
2013-02-05 23:06:00,34.3,32.2,29.93,South,171,0.0,0.0,92,0.00,,,0.00,Wunderground v.1.15,2013-02-06 04:06:00,
2013-02-05 23:12:00,34.6,32.2,29.94,South,171,0.0,0.0,91,0.00,,,0.00,Wunderground v.1.15,2013-02-06 04:12:00,
2013-02-05 23:17:00,34.8,33.0,29.93,South,171,1.0,2.0,91,0.00,,,0.00,weatherlink.com 1.10,2013-02-06 04:17:00,
2013-02-05 23:23:00,34.6,32.2,29.93,South,171,1.0,1.0,91,0.00,,,0.00,Wunderground v.1.15,2013-02-06 04:23:00,
2013-02-05 23:29:00,34.3,31.9,29.94,South,171,1.0,2.0,91,0.00,,,0.00,Wunderground v.1.15,2013-02-06 04:29:00,
2013-02-05 23:34:00,34.1,32.0,29.94,South,171,1.0,2.0,92,0.00,,,0.00,Wunderground v.1.15,2013-02-06 04:34:00,
2013-02-05 23:39:00,34.0,31.9,29.94,South,171,1.0,2.0,92,0.00,,,0.00,Wunderground v.1.15,2013-02-06 04:39:00,
2013-02-05 23:44:00,33.9,31.8,29.94,South,171,0.0,1.0,92,0.00,,,0.00,Wunderground v.1.15,2013-02-06 04:44:00,
2013-02-05 23:49:00,33.9,32.1,29.94,South,171,0.0,1.0,93,0.00,,,0.00,Wunderground v.1.15,2013-02-06 04:49:00,
2013-02-05 23:54:00,34.0,32.2,29.94,South,171,0.0,1.0,93,0.00,,,0.00,Wunderground v.1.15,2013-02-06 04:54:00,
2013-02-05 23:59:00,34.1,32.3,29.94,South,171,0.0,1.0,93,0.00,,,0.00,Wunderground v.1.15,2013-02-06 04:59:00,